Simultaneous Nadir Overpasses (SNOs) Predictions

Prediction of SNOs between AQUA and NPP Satellite Orbit:

Table of predicted SNOs for the next 14.0 days since TLE Epoch: 10/5/2013
Index Date (AQUA) Time (AQUA) Lat,Lon (AQUA) SZA (AQUA ) Date (NPP) Time (NPP) Lat,Lon (NPP) SZA (NPP ) Distance(km) Time Diff (sec)
1 10/07/2013 05:32:59 74.21, -28.88 103.89 10/07/2013 05:32:31 74.21, -28.86 103.91 0.81 28
2 10/07/2013 06:22:01 -75.45, 141.93 77.41 10/07/2013 06:22:50 -75.45, 141.95 77.47 0.60 49
3 10/09/2013 21:01:25 -69.66, -88.70 70.68 10/09/2013 21:00:11 -69.73, -89.06 70.53 15.86 74
4 10/09/2013 21:49:14 74.79, 88.41 104.23 10/09/2013 21:49:15 74.79, 88.47 104.22 1.85 1
5 10/09/2013 22:35:20 -81.80, -50.20 86.53 10/09/2013 22:36:33 -81.28, -49.72 86.84 58.55 73
6 10/12/2013 13:16:38 -73.63, 33.97 73.65 10/12/2013 13:15:52 -73.63, 33.97 73.61 0.10 46
7 10/12/2013 14:05:37 74.98,-155.19 104.97 10/12/2013 14:06:08 74.98,-155.22 104.95 0.94 31
8 10/15/2013 05:32:55 -74.13, 150.95 73.23 10/15/2013 05:32:39 -74.12, 150.93 73.21 0.84 16
9 10/15/2013 06:21:56 75.36, -38.28 105.50 10/15/2013 06:22:57 75.36, -38.34 105.46 1.76 61
10 10/17/2013 21:00:13 73.10, 97.01 108.72 10/17/2013 20:59:10 73.10, 97.00 108.78 0.23 63




NCC Satellite Simultaneous Nadir Overpasses (SNOs) Prediction Service
